Regional Weather Roundup
Issued by NWS Wilmington, NC

Current Version | Previous Version | Graphics & Text | Print | Product List | Glossary On
Versions: 1 2 3 4 5 6 7 8 9 10 11 12 13 14 15 16 17 18 19 20 21 22 23 24 25 26 27 28 29 30 31 32 33 34 35 36 37 38 39 40 41 42 43 44 45 46 47 48 49 50
000
ASUS42 KILM 121814
RWRILM
RWRILM
REGIONAL HOURLY WEATHER ROUNDUP
NATIONAL WEATHER SERVICE WILMINGTON NC
200 PM EDT WED AUG 12 2020

NOTE: "FAIR" INDICATES FEW OR NO CLOUDS BELOW 12,000 FEET WITH NO
SIGNIFICANT WEATHER AND/OR OBSTRUCTIONS TO VISIBILITY.

...............WFO WILMINGTON COUNTY WARNING AREA...............

......COASTAL NC AND SC COUNTIES......

CITY           SKY/WX    TMP DP  RH WIND       PRES   REMARKS
WILMINGTON     MOSUNNY   87  73  62 SE9       30.00F HX  94
N MYRTLE BEACH SUNNY     86  76  71 S12       29.99F HX  96
MYRTLE BEACH   SUNNY     85  78  80 S8        30.00F HX  96

......INLAND NC AND SC COUNTIES.......

CITY           SKY/WX    TMP DP  RH WIND       PRES   REMARKS
LUMBERTON      NOT AVBL
ELIZABETHTOWN  LGT RAIN  82  76  84 CALM      30.00F
WHITEVILLE     NOT AVBL
FLORENCE       SUNNY     89  72  56 SE6       29.98F HX  96
DARLINGTON     NOT AVBL
KINGSTREE      PTSUNNY   88  72  58 CALM      29.98S HAZE    HX  94
HARTSVILLE     FAIR      88  75  66 SE3       30.00F HX  97
BENNETTSVILLE  PTSUNNY   88  77  70 SE5       29.99F HX 100
CONWAY         PTSUNNY   90  73  58 CALM      29.99F HX  98
GEORGETOWN     PTSUNNY   86  73  66 S8        30.00F HX  93
MARION         FAIR      88  72  58 E3        29.98F HX  94

....................REST OF NORTH CAROLINA......................

.........EASTERN NC.........

CITY           SKY/WX    TMP DP  RH WIND       PRES   REMARKS
CAPE HATTERAS  SUNNY     94  77  57 S8        30.04F HX 108
JACKSONVILLE   SUNNY     88  75  65 E14       30.01F HX  97
MOREHEAD CITY  SUNNY     86  76  71 S12       30.03F HX  96
KENANSVILLE    PTSUNNY   86  75  70 SE3       30.00F HX  95
NEW BERN       MOSUNNY   88  74  63 S12       30.02F HX  96
ELIZABETH CITY PTSUNNY  N/A N/A N/A MISG      30.03S

.........CENTRAL NC.........

CITY           SKY/WX    TMP DP  RH WIND       PRES   REMARKS
RALEIGH DURHAM MOSUNNY   90  72  55 S7        30.02F HX  97
ROCKY MOUNT    MOSUNNY   89  73  59 VRB3      30.02F HX  97
ROANOKE RAPIDS NOT AVBL
FAYETTEVILLE   SUNNY     91  72  53 E3        29.99F HX  98
HOFFMAN        MOSUNNY   88  73  60 SE8       30.00S HX  96

.........WESTERN NC.........

CITY           SKY/WX    TMP DP  RH WIND       PRES   REMARKS
CHARLOTTE      PTSUNNY   88  68  51 SE7       30.02F HX  91
GREENSBORO     PTSUNNY   87  73  62 SE10      30.02F HX  94
HICKORY        NOT AVBL
BOONE          NOT AVBL
ASHEVILLE      NOT AVBL

.....................REST OF SOUTH CAROLINA.....................

.........EASTERN SC.........

CITY           SKY/WX    TMP DP  RH WIND       PRES   REMARKS
CHARLESTON     MOSUNNY   89  76  65 S7        29.98F HX 100
BEAUFORT MCAS  PTSUNNY   89  75  63 S9        29.99  HX  99
HILTON HEAD    MOSUNNY   86  75  70 SW7       30.01F HX  95

.........CENTRAL SC.........

CITY           SKY/WX    TMP DP  RH WIND       PRES   REMARKS
COLUMBIA       CLOUDY    86  72  62 NE5       29.98F HX  92
ORANGEBURG     NOT AVBL
SUMTER SHAW    PTSUNNY   89  72  56 E3        29.99F HX  95

.........WESTERN SC.........

CITY           SKY/WX    TMP DP  RH WIND       PRES   REMARKS
GREENVILLE     NOT AVBL
ROCK HILL      LGT RAIN  84  75  74 W3        30.02F HX  92
ANDERSON       MOSUNNY   89  68  49 N5        30.01F HX  93
CLEMSON        NOT AVBL
GREENWOOD      RAIN      81  78  91 W3        30.02S FOG


...................COASTAL AND OFFSHORE REPORTS..................

................LOCAL PIERS AND NC RESERVE................


STATION/POSITION TIME  SKY/WX   TEMP    WIND        PRES    VSBY
                                AIR SEA DIR/SP/G
                 (UTC)          (F)     (DEG/KT/KT) (MB)    (MI)
JOHNY MRCER PIER NOT AVBL
NC RESRV MASNBRO NOT AVBL
OCEAN CREST PIER NOT AVBL
SPRINGMAID  PIER 1724            81                   N/A


................COASTAL AND OFFSHORE BUOYS................


STATION/POSITION TIME  SKY/WX   TEMP    WIND        PRES    VSBY
                                AIR SEA DIR/SP/G
                 (UTC)          (F)     (DEG/KT/KT) (MB)    (MI)
DIMNDSHOAL 41025 1800            84     190/ 14/ 17   N/A
CAPE LOOKOUT     1800            82     170/ 13/ 14 1017.0F
ONSLOW BAY 41036 NOT AVBL
ONSLOW BAY 41064 1708            81     190/ 14/ 17 1016.5F
ONSLOW BAY 41159 1756               82                N/A
WVE H/P(F/S)=  3/ 4

MASNBO INL 41110 1737               83                N/A
WVE H/P(F/S)=  3/ 5

WILM HARBR 41108 1730               85                N/A
WVE H/P(F/S)=  3/ 5

27SE WRITB 41037 1708            81 83  210/ 10/ 16 1016.8F
FRYING PAN 41013 1800            81     200/ 12/ 14 1015.5
SUNST NRSH 41024 1708            83 84  180/  6/ 10 1016.1F
CAPRS NRSH 41029 1708            82 86  170/  8/ 14 1015.9F
EDISTO     41004 1800            80     190/ 14/ 19 1016.5


..........OFFSHORE BUOYS BEYOND 100 NM OFFSHORE...........
.....IN A TRIANGLE---HAT TO BERMUDA TO BAHAMAS TO HAT.....


STATION/POSITION TIME  SKY/WX   TEMP    WIND        PRES    VSBY
                                AIR SEA DIR/SP/G
                 (UTC)          (F)     (DEG/KT/KT) (MB)    (MI)
150E HAT   41001 1750            81 84  170/ 12/ 14 1018.2F
WVE H/P(F/S)=  3/ 5 SWL H/P/D(F/S/D)=  2/140/10

W BERMUDA  41048 1800            84     140/  6/  8 1019.8
ATLANTIC S 41049 1800            84     120/  4/  8 1019.0
E BAHAMAS  41046 1750            85 85  120/ 12/ 14 1017.8F
WVE H/P(F/S)=  4/ 5 SWL H/P/D(F/S/D)=  2/100/ 8

NE BAHAMAS 41047 1750            84                 1019.0F
WVE H/P(F/S)=  2/ 7 SWL H/P/D(F/S/D)=  2/130/ 7

120E CANVRL41010 1750            81 85  240/ 12/ 14 1018.4F
WVE H/P(F/S)=  2/10 SWL H/P/D(F/S/D)=  2/110/10


END




USA.gov is the U.S. government's official web portal to all federal, state and local government web resources and services.